Canadian, TX

1:56 AM CST on February 27, 2017 (GMT -0600)
Hemphill County

Weather History for KHHF - October, 2012

Change the Weather History Date:

Wednesday, October 24, 2012

  Actual Average (KPPA) Record (KPPA)
Temperature  
Mean Temperature 74 °F -  
Max Temperature 86 °F 67 °F 86 °F (2012)
Min Temperature 62 °F 42 °F 28 °F (2008)
Cooling Degree Days 9    
Growing Degree Days 24 (Base 50)    
Moisture  
Dew Point 61 °F    
Average Humidity 68    
Maximum Humidity 88    
Minimum Humidity 37    
Precipitation  
Precipitation 0.00 in - - ()
Sea Level Pressure  
Sea Level Pressure 29.75 in    
Wind  
Wind Speed 16 mph (SSW)    
Max Wind Speed 28 mph    
Max Gust Speed 33 mph    
Visibility 10 miles    
Events      
Averages and records for this station are not official NWS values.
T = Trace of Precipitation, MM = Missing Value Source: NWS Daily Summary

Daily Weather History Graph

Daily Weather History Graph

Search for Another Location

Airport or City:

Trip Planner

Search our weather history database for the weather conditions in past years. The results will help you decide how hot, cold, wet, or windy it might be!

Date:

Astronomy

Oct. 24, 2012 Rise Set
Actual Time 7:56 AM CDT 6:54 PM CDT
Civil Twilight 7:30 AM CDT 7:20 PM CDT
Nautical Twilight 7:00 AM CDT 7:50 PM CDT
Astronomical Twilight 6:31 AM CDT 8:19 PM CDT
Moon 4:03 PM CDT (10/24) 3:02 AM CDT (10/24)
Length of Visible Light 11h 49m
Length of Day
10h 57m
Waxing Gibbous, 76% of the Moon is Illuminated
Oct 24
Waxing Gibbous
Oct 29
Full
Nov 6
Last Quarter
Nov 13
New
Nov 20
First Quarter

Hourly Weather History & Observations

Time (CDT) Temp. Heat Index Dew Point Humidity Pressure Visibility Wind Dir Wind Speed Gust Speed Precip Events Conditions
12:15 AM 71.6 °F - 59.0 °F 64% 29.79 in 10.0 mi SSW 20.7 mph - N/A   Clear
12:35 AM 71.6 °F - 59.0 °F 64% 29.79 in 10.0 mi SSW 19.6 mph 28.8 mph N/A   Clear
12:55 AM 71.6 °F - 60.8 °F 69% 29.80 in 10.0 mi SSW 19.6 mph 26.5 mph N/A   Clear
1:15 AM 69.8 °F - 60.8 °F 73% 29.80 in 10.0 mi SSW 20.7 mph 25.3 mph N/A   Clear
1:35 AM 69.8 °F - 60.8 °F 73% 29.80 in 10.0 mi SSW 21.9 mph 27.6 mph N/A   Clear
1:55 AM 69.8 °F - 60.8 °F 73% 29.79 in 10.0 mi South 18.4 mph 26.5 mph N/A   Clear
2:15 AM 69.8 °F - 60.8 °F 73% 29.79 in 10.0 mi South 20.7 mph 26.5 mph N/A   Clear
2:35 AM 69.8 °F - 60.8 °F 73% 29.79 in 10.0 mi SSW 16.1 mph 23.0 mph N/A   Clear
2:55 AM 68.0 °F - 60.8 °F 78% 29.79 in 10.0 mi SSW 19.6 mph 25.3 mph N/A   Clear
3:15 AM 68.0 °F - 60.8 °F 78% 29.80 in 10.0 mi SW 10.4 mph 20.7 mph N/A   Clear
3:35 AM 66.2 °F - 60.8 °F 83% 29.79 in 10.0 mi SSW 11.5 mph 18.4 mph N/A   Clear
3:55 AM 68.0 °F - 60.8 °F 78% 29.79 in 10.0 mi SSW 13.8 mph 19.6 mph N/A   Clear
4:15 AM 64.4 °F - 60.8 °F 88% 29.79 in 10.0 mi SW 11.5 mph 17.3 mph N/A   Clear
4:35 AM 64.4 °F - 60.8 °F 88% 29.79 in 10.0 mi SW 10.4 mph - N/A   Clear
4:55 AM 64.4 °F - 59.0 °F 83% 29.79 in 10.0 mi WSW 4.6 mph - N/A   Clear
5:15 AM 64.4 °F - 59.0 °F 83% 29.80 in 10.0 mi Calm Calm - N/A   Clear
5:35 AM 62.6 °F - 59.0 °F 88% 29.80 in 10.0 mi WSW 4.6 mph - N/A   Clear
5:55 AM 64.4 °F - 59.0 °F 83% 29.80 in 10.0 mi SW 4.6 mph - N/A   Clear
6:15 AM 64.4 °F - 59.0 °F 83% 29.80 in 10.0 mi SW 8.1 mph - N/A   Clear
6:35 AM 64.4 °F - 59.0 °F 83% 29.80 in 10.0 mi SW 11.5 mph 16.1 mph N/A   Clear
6:55 AM 64.4 °F - 59.0 °F 83% 29.81 in 10.0 mi SSW 9.2 mph - N/A   Clear
7:15 AM 64.4 °F - 59.0 °F 83% 29.80 in 10.0 mi SW 11.5 mph - N/A   Clear
7:35 AM 68.0 °F - 59.0 °F 73% 29.81 in 10.0 mi SW 12.7 mph - N/A   Clear
7:55 AM 64.4 °F - 59.0 °F 83% 29.81 in 10.0 mi SW 6.9 mph - N/A   Clear
8:15 AM 66.2 °F - 59.0 °F 78% 29.81 in 10.0 mi SW 8.1 mph - N/A   Clear
8:35 AM 66.2 °F - 60.8 °F 83% 29.81 in 10.0 mi SW 9.2 mph - N/A   Clear
8:55 AM 68.0 °F - 60.8 °F 78% 29.81 in 10.0 mi SSW 10.4 mph - N/A   Clear
9:15 AM 68.0 °F - 60.8 °F 78% 29.81 in 10.0 mi SSW 11.5 mph - N/A   Clear
9:35 AM 68.0 °F - 60.8 °F 78% 29.81 in 10.0 mi SSW 13.8 mph - N/A   Clear
9:55 AM 69.8 °F - 62.6 °F 78% 29.82 in 10.0 mi SSW 15.0 mph 18.4 mph N/A   Clear
10:15 AM 69.8 °F - 60.8 °F 73% 29.81 in 10.0 mi SSW 15.0 mph 19.6 mph N/A   Clear
10:35 AM 69.8 °F - 62.6 °F 78% 29.81 in 10.0 mi SSW 16.1 mph - N/A   Clear
10:55 AM 71.6 °F - 62.6 °F 73% 29.81 in 10.0 mi SSW 12.7 mph 21.9 mph N/A   Clear
11:15 AM 73.4 °F - 62.6 °F 69% 29.81 in 10.0 mi SW 16.1 mph 21.9 mph N/A   Clear
11:35 AM 75.2 °F - 60.8 °F 61% 29.81 in 10.0 mi SSW 16.1 mph - N/A   Clear
11:55 AM 75.2 °F - 62.6 °F 65% 29.81 in 10.0 mi SSW 16.1 mph 23.0 mph N/A   Clear
12:15 PM 75.2 °F - 62.6 °F 65% 29.80 in 10.0 mi SW 13.8 mph - N/A   Clear
12:35 PM 77.0 °F - 62.6 °F 61% 29.80 in 10.0 mi SSW 15.0 mph - N/A   Clear
12:55 PM 77.0 °F - 60.8 °F 57% 29.79 in 10.0 mi SW 12.7 mph - N/A   Clear
1:15 PM 78.8 °F - 62.6 °F 57% 29.78 in 10.0 mi SSW 10.4 mph - N/A   Clear
1:35 PM 80.6 °F 81.5 °F 60.8 °F 51% 29.77 in 10.0 mi SSW 15.0 mph - N/A   Clear
1:55 PM 82.4 °F 82.9 °F 60.8 °F 48% 29.75 in 10.0 mi SSW 12.7 mph 16.1 mph N/A   Clear
2:15 PM 86.0 °F 85.4 °F 59.0 °F 40% 29.74 in 10.0 mi SSW 17.3 mph 25.3 mph N/A   Clear
2:35 PM 86.0 °F 84.9 °F 57.2 °F 37% 29.73 in 10.0 mi SSW 19.6 mph 24.2 mph N/A   Clear
2:55 PM 84.2 °F 83.8 °F 59.0 °F 42% 29.72 in 10.0 mi South 20.7 mph 25.3 mph N/A   Clear
3:15 PM 86.0 °F 85.4 °F 59.0 °F 40% 29.72 in 10.0 mi SSW 20.7 mph 24.2 mph N/A   Clear
3:35 PM 84.2 °F 85.0 °F 62.6 °F 48% 29.71 in 10.0 mi South 18.4 mph 23.0 mph N/A   Clear
4:15 PM 82.4 °F 83.4 °F 62.6 °F 51% 29.69 in 10.0 mi South 13.8 mph 18.4 mph N/A   Clear
4:35 PM 82.4 °F 83.4 °F 62.6 °F 51% 29.68 in 10.0 mi South 17.3 mph 20.7 mph N/A   Clear
4:55 PM 82.4 °F 83.4 °F 62.6 °F 51% 29.68 in 10.0 mi South 16.1 mph 25.3 mph N/A   Clear
5:15 PM 84.2 °F 85.0 °F 62.6 °F 48% 29.67 in 10.0 mi South 20.7 mph 26.5 mph N/A   Clear
5:35 PM 82.4 °F 83.4 °F 62.6 °F 51% 29.68 in 10.0 mi South 23.0 mph 27.6 mph N/A   Clear
5:55 PM 82.4 °F 83.4 °F 62.6 °F 51% 29.66 in 10.0 mi South 23.0 mph 28.8 mph N/A   Clear
6:15 PM 80.6 °F 81.8 °F 62.6 °F 54% 29.66 in 10.0 mi South 19.6 mph 31.1 mph N/A   Clear
6:35 PM 80.6 °F 82.3 °F 64.4 °F 58% 29.65 in 10.0 mi South 19.6 mph 25.3 mph N/A   Clear
6:55 PM 78.8 °F - 64.4 °F 61% 29.65 in 10.0 mi South 17.3 mph 26.5 mph N/A   Clear
7:15 PM 78.8 °F - 64.4 °F 61% 29.66 in 10.0 mi South 20.7 mph - N/A   Clear
7:55 PM 78.8 °F - 64.4 °F 61% 29.67 in 10.0 mi South 19.6 mph 24.2 mph N/A   Clear
8:15 PM 78.8 °F - 64.4 °F 61% 29.66 in 10.0 mi South 19.6 mph 26.5 mph N/A   Clear
8:35 PM 77.0 °F - 64.4 °F 65% 29.66 in 10.0 mi South 24.2 mph 31.1 mph N/A   Clear
8:55 PM 77.0 °F - 64.4 °F 65% 29.65 in 10.0 mi South 23.0 mph 31.1 mph N/A   Clear
9:15 PM 77.0 °F - 64.4 °F 65% 29.65 in 10.0 mi South 25.3 mph 29.9 mph N/A   Clear
9:55 PM 73.4 °F - 64.4 °F 73% 29.63 in 10.0 mi South 24.2 mph 28.8 mph N/A   Clear
10:15 PM 73.4 °F - 64.4 °F 73% 29.64 in 10.0 mi South 27.6 mph 33.4 mph N/A   Clear
10:35 PM 73.4 °F - 64.4 °F 73% 29.65 in 10.0 mi South 25.3 mph 33.4 mph N/A   Clear
10:55 PM 73.4 °F - 62.6 °F 69% 29.65 in 10.0 mi South 23.0 mph 31.1 mph N/A   Clear
11:15 PM 73.4 °F - 62.6 °F 69% 29.65 in 10.0 mi South 21.9 mph 29.9 mph N/A   Clear
11:35 PM 71.6 °F - 62.6 °F 73% 29.63 in 10.0 mi South 21.9 mph 26.5 mph N/A   Clear
11:55 PM 71.6 °F - 62.6 °F 73% 29.64 in 10.0 mi South 19.6 mph 26.5 mph N/A   Clear